Lovelock, NV

8:11 PM PST on February 17, 2018 (GMT -0800)
Derby

Weather History for KLOL - September, 1975

Change the Weather History Date:

Friday, September 26, 1975

  Actual Average Record
Temperature  
Mean Temperature 65 °F -  
Max Temperature 86 °F 78 °F 95 °F (1954)
Min Temperature 44 °F 42 °F 28 °F (1948)
Growing Degree Days 15 (Base 50)    
Moisture  
Dew Point 24 °F    
Average Humidity 23    
Maximum Humidity 44    
Minimum Humidity 8    
Precipitation  
Precipitation 0.00 in - - ()
Sea Level Pressure  
Sea Level Pressure 30.06 in    
Wind  
Wind Speed 6 mph (SE)    
Max Wind Speed 10 mph    
Max Gust Speed -    
Visibility 20 miles    
Events      
Averages and records for this station are not official NWS values.
T = Trace of Precipitation, MM = Missing Value Source: NWS Daily Summary

Daily Weather History Graph

Daily Weather History Graph

Search for Another Location

Airport or City:

Trip Planner

Search our weather history database for the weather conditions in past years. The results will help you decide how hot, cold, wet, or windy it might be!

Date:

Astronomy

Sep. 26, 1975 Rise Set
Actual Time 6:45 AM PDT 6:45 PM PDT
Civil Twilight 6:18 AM PDT 7:12 PM PDT
Nautical Twilight 5:46 AM PDT 7:43 PM PDT
Astronomical Twilight 5:14 AM PDT 8:15 PM PDT
Moon 10:29 PM PDT (9/26) 12:35 PM PDT (9/26)
Length of Visible Light 12h 54m
Length of Day
12h 00m
Waning Gibbous, 67% of the Moon is Illuminated
Sep 26
Waning Gibbous
Sep 28
Last Quarter
Oct 4
New
Oct 11
First Quarter
Oct 19
Full

Hourly Weather History & Observations

Time (PDT) Temp. Windchill Dew Point Humidity Pressure Visibility Wind Dir Wind Speed Gust Speed Precip Events Conditions
12:00 AM 63.0 °F - 22.1 °F 21% 30.02 in 20.0 mi East 6.9 mph - N/A   Clear
1:00 AM 60.1 °F - 21.2 °F 22% 30.01 in 20.0 mi NE 4.6 mph - N/A   Clear
2:00 AM 60.1 °F - 21.2 °F 22% 30.01 in 20.0 mi NW 4.6 mph - N/A   Clear
3:00 AM 52.0 °F - 23.2 °F 33% 30.04 in 20.0 mi NNW 5.8 mph - N/A   Clear
4:00 AM 53.1 °F - 20.1 °F 28% 30.05 in 20.0 mi Calm Calm - N/A   Clear
5:00 AM 46.9 °F - 26.2 °F 44% 30.07 in 20.0 mi East 8.1 mph - N/A   Clear
6:00 AM 48.9 °F - 25.2 °F 40% 30.08 in 20.0 mi West 4.6 mph - N/A   Clear
7:00 AM 44.1 °F 40.1 °F 22.1 °F 42% 30.12 in 35.0 mi East 6.9 mph - N/A   Clear
8:00 AM 48.9 °F - 26.2 °F 41% 30.13 in 50.0 mi North - - N/A   Clear
9:00 AM 59.0 °F - 30.2 °F 34% 30.14 in 50.0 mi Calm Calm - N/A   Clear
10:00 AM 68.0 °F - 27.1 °F 22% 30.13 in 50.0 mi Calm Calm - N/A   Clear
11:00 AM 75.9 °F - 30.2 °F 19% 30.11 in 50.0 mi Calm Calm - N/A   Clear
12:00 PM 79.0 °F - 30.2 °F 17% 30.09 in 50.0 mi South 4.6 mph - N/A   Clear
1:00 PM 81.0 °F - 29.1 °F 15% 30.08 in 50.0 mi SSE 6.9 mph - N/A   Clear
2:00 PM 84.9 °F - 24.3 °F 11% 30.05 in 50.0 mi South 5.8 mph - N/A   Clear
3:00 PM 84.9 °F - 28.2 °F 13% 30.04 in 50.0 mi SSE 9.2 mph - N/A   Clear
4:00 PM 86.0 °F - 23.2 °F 10% 30.02 in 50.0 mi South 6.9 mph - N/A   Clear
5:00 PM 84.9 °F - 23.2 °F 10% 30.02 in 50.0 mi South 6.9 mph - N/A   Clear
6:00 PM 84.9 °F - 18.1 °F 8% 30.02 in 50.0 mi NW 10.4 mph - N/A   Clear
7:00 PM 78.1 °F - 19.2 °F 11% 30.04 in 50.0 mi NW 9.2 mph - N/A   Clear
8:00 PM 70.0 °F - 21.2 °F 16% 30.06 in 20.0 mi NW 8.1 mph - N/A   Clear
9:00 PM 63.0 °F - 24.3 °F 23% 30.06 in 20.0 mi SE 8.1 mph - N/A   Clear
10:00 PM 64.9 °F - 21.2 °F 19% 30.06 in 20.0 mi SSE 5.8 mph - N/A   Clear
11:00 PM 60.1 °F - 18.1 °F 20% 30.06 in 20.0 mi NE 9.2 mph - N/A   Clear